Location: Maiden
(35.5760°N, 81.2120°W)
Time: 18:03:38
(UTC-04:00)

ISS - Visible Passes

Search period start: 27 May 2016 00:00
Search period end: 06 June 2016 00:00
Orbit: 402 x 404 km, 51.6° (Epoch: 27 May)

Date Brightness Start Highest point End Pass type
(mag) Time Alt. Az. Time Alt. Az. Time Alt. Az.
27 May 0.1 03:59:13 10° N 04:00:57 14° NNE 04:02:42 10° ENE visible
27 May -3.4 05:34:30 10° NW 05:37:45 80° SW 05:40:59 10° SE visible
27 May -2.3 22:11:49 10° WSW 22:14:59 47° NW 22:18:10 10° NE visible
28 May -2.2 04:41:50 10° NW 04:45:00 46° NE 04:48:09 10° ESE visible
28 May -3.4 21:18:59 10° SW 21:22:13 78° SE 21:25:29 10° NE visible
28 May 0.1 22:57:15 10° WNW 22:59:01 14° NNW 23:00:48 10° N visible
29 May -0.9 03:49:23 10° NNW 03:52:09 25° NNE 03:54:54 10° E visible
29 May -2.4 05:25:44 10° WNW 05:28:33 27° SW 05:31:21 10° SSE visible
29 May -0.6 22:03:26 10° W 22:06:03 22° NNW 22:08:40 10° NNE visible
30 May -0.2 02:57:09 10° N 02:59:12 15° NNE 03:01:14 10° ENE visible
30 May -3.5 04:32:41 10° NW 04:35:55 62° SW 04:39:06 10° SE visible
30 May -1.7 21:10:05 10° WSW 21:13:09 38° NW 21:16:15 10° NE visible
31 May 0.3 02:05:40 10° NNE 02:05:59 10° NNE 02:05:59 10° NNE visible
31 May 0.1 21:55:50 10° NW 21:57:15 12° NNW 21:58:40 10° N visible
05 Jun 0.3 00:53:03 10° NNW 00:53:07 10° NNW 00:53:07 10° NNW visible
